UAE2013 MMMX-KIND

Flight info

Callsign UAE2013
Flight time N/A
Altitude 35000
Route IKLA2A/05L IKLAN UT140 TAM UM575 CLONN M575 TBD DCT MCB/N0478F360 J35 SQS/N0476F370 J35 MEM J29 PXV DCT TERGE SMUKE3
Aircraft B77L/H-SDE1E2E3FGHIJ2J3J4J5M1RWXY/LB1D1

Departure

Time 2026-05-06 01:54
Airport Mexico City Benito Juárez International Airport (MMMX)

Arrival

Time N/A
Airport Indianapolis International Airport (KIND)
Time Latitude Longitude Altitude Speed Heading
2026-05-06 01:52 19.42820 -99.08940 7309 ft 0 kts 58°
2026-05-06 01:53 19.42836 -99.08913 7309 ft 24 kts 59°
2026-05-06 01:53 19.43060 -99.08509 7310 ft 103 kts 59°
2026-05-06 01:53 19.43555 -99.07626 7309 ft 175 kts 59°
2026-05-06 01:54 19.44280 -99.06333 7329 ft 227 kts 58°
2026-05-06 01:54 19.45134 -99.04858 7839 ft 239 kts 58°
2026-05-06 01:54 19.46107 -99.03370 8547 ft 261 kts 58°
2026-05-06 01:54 19.47080 -99.01586 8712 ft 287 kts 62°
2026-05-06 01:55 19.48020 -98.99807 9164 ft 263 kts 60°
2026-05-06 01:55 19.48897 -98.98194 9477 ft 246 kts 60°
2026-05-06 01:55 19.49736 -98.96664 9803 ft 241 kts 60°
2026-05-06 01:55 19.50594 -98.95114 10475 ft 241 kts 60°
2026-05-06 01:56 19.51434 -98.93607 11088 ft 239 kts 60°
2026-05-06 01:56 19.52276 -98.92102 11712 ft 235 kts 60°
2026-05-06 01:56 19.53110 -98.90613 12254 ft 236 kts 59°
2026-05-06 01:56 19.54070 -98.89240 12570 ft 245 kts 50°
2026-05-06 01:57 19.55249 -98.87886 12967 ft 251 kts 47°
2026-05-06 01:57 19.56444 -98.86556 13592 ft 246 kts 47°
2026-05-06 01:57 19.57613 -98.85249 14142 ft 244 kts 48°
2026-05-06 01:57 19.58787 -98.83924 14458 ft 251 kts 47°
2026-05-06 01:58 19.59999 -98.82545 14723 ft 259 kts 48°
2026-05-06 01:58 19.61222 -98.81146 15171 ft 258 kts 48°
2026-05-06 01:58 19.62444 -98.79743 15621 ft 259 kts 47°
2026-05-06 01:58 19.63667 -98.78337 16073 ft 260 kts 48°
2026-05-06 01:59 19.64890 -98.76926 16467 ft 261 kts 48°
2026-05-06 01:59 19.66126 -98.75500 16838 ft 264 kts 49°
2026-05-06 01:59 19.67375 -98.74056 17219 ft 267 kts 48°
2026-05-06 01:59 19.68637 -98.72597 17624 ft 269 kts 49°
2026-05-06 02:00 19.69904 -98.71139 18146 ft 268 kts 45°
2026-05-06 02:00 19.71466 -98.70051 18256 ft 279 kts 16°
2026-05-06 02:00 19.73433 -98.69742 18271 ft 292 kts
2026-05-06 02:00 19.75472 -98.69734 18561 ft 295 kts 352°
2026-05-06 02:01 19.77496 -98.70207 18887 ft 301 kts 345°
2026-05-06 02:01 19.79526 -98.70844 19181 ft 307 kts 344°
2026-05-06 02:01 19.81591 -98.71514 19470 ft 313 kts 344°
2026-05-06 02:01 19.83701 -98.72180 19767 ft 320 kts 345°
2026-05-06 02:02 19.85860 -98.72840 20069 ft 326 kts 346°
2026-05-06 02:02 19.88060 -98.73493 20355 ft 331 kts 346°
2026-05-06 02:02 19.90303 -98.74147 20648 ft 337 kts 346°
2026-05-06 02:02 19.92548 -98.74791 20929 ft 340 kts 346°
2026-05-06 02:03 19.94844 -98.75443 21200 ft 342 kts 346°
2026-05-06 02:03 19.97155 -98.76093 21495 ft 345 kts 346°
2026-05-06 02:03 19.99490 -98.76749 21763 ft 348 kts 346°
2026-05-06 02:03 20.01036 -98.77183 21953 ft 351 kts 346°
2026-05-06 02:04 20.03416 -98.77851 22257 ft 356 kts 346°
2026-05-06 02:04 20.05817 -98.78525 22564 ft 358 kts 346°
2026-05-06 02:04 20.08239 -98.79205 22850 ft 361 kts 346°
2026-05-06 02:04 20.10675 -98.79889 23157 ft 363 kts 346°
2026-05-06 02:05 20.13126 -98.80577 23450 ft 365 kts 346°
2026-05-06 02:05 20.15587 -98.81269 23712 ft 367 kts 346°
2026-05-06 02:05 20.18062 -98.81965 23976 ft 368 kts 346°
2026-05-06 02:05 20.20543 -98.82662 24240 ft 369 kts 346°
2026-05-06 02:06 20.23029 -98.83361 24508 ft 370 kts 345°
2026-05-06 02:06 20.25528 -98.84064 24746 ft 371 kts 345°
2026-05-06 02:06 20.28024 -98.84767 25006 ft 372 kts 345°
2026-05-06 02:06 20.30530 -98.85473 25279 ft 373 kts 345°
2026-05-06 02:07 20.33038 -98.86179 25560 ft 373 kts 345°
2026-05-06 02:07 20.35553 -98.86887 25835 ft 374 kts 345°
2026-05-06 02:07 20.38077 -98.87598 26092 ft 375 kts 345°
2026-05-06 02:07 20.40605 -98.88310 26373 ft 375 kts 346°
2026-05-06 02:08 20.43180 -98.88604 26604 ft 374 kts
2026-05-06 02:08 20.45685 -98.87941 26885 ft 370 kts 26°
2026-05-06 02:08 20.47972 -98.86705 27198 ft 366 kts 28°
2026-05-06 02:08 20.50224 -98.85450 27474 ft 365 kts 28°
2026-05-06 02:09 20.52473 -98.84199 27729 ft 363 kts 28°
2026-05-06 02:09 20.54711 -98.82958 28015 ft 361 kts 28°
2026-05-06 02:09 20.56934 -98.81729 28283 ft 358 kts 28°
2026-05-06 02:09 20.59139 -98.80514 28567 ft 355 kts 27°
2026-05-06 02:10 20.61149 -98.79409 28750 ft 354 kts 27°
2026-05-06 02:10 20.63348 -98.78201 28809 ft 358 kts 27°
2026-05-06 02:10 20.67764 -98.75778 28906 ft 364 kts 27°
2026-05-06 02:11 20.70011 -98.74545 29139 ft 362 kts 27°
2026-05-06 02:11 20.72242 -98.73321 29353 ft 360 kts 27°
2026-05-06 02:11 20.74471 -98.72099 29457 ft 361 kts 27°
2026-05-06 02:11 20.76725 -98.70862 29453 ft 366 kts 27°
2026-05-06 02:12 20.81281 -98.68355 29532 ft 371 kts 27°
2026-05-06 02:12 20.85882 -98.65803 29552 ft 380 kts 27°
2026-05-06 02:13 20.90655 -98.63187 29568 ft 391 kts 27°
2026-05-06 02:13 20.95635 -98.60459 29520 ft 403 kts 26°
2026-05-06 02:14 21.00698 -98.57680 29528 ft 416 kts 27°
2026-05-06 02:14 21.05933 -98.54798 29505 ft 430 kts 27°
2026-05-06 02:15 21.11338 -98.51818 29500 ft 443 kts 27°
2026-05-06 02:15 21.16884 -98.48757 29684 ft 451 kts 27°
2026-05-06 02:16 21.19670 -98.47218 29924 ft 451 kts 27°
2026-05-06 02:16 21.22460 -98.45676 30142 ft 450 kts 27°
2026-05-06 02:16 21.25243 -98.44137 30367 ft 450 kts 26°
2026-05-06 02:16 21.28024 -98.42599 30590 ft 450 kts 26°
2026-05-06 02:17 21.30801 -98.41063 30819 ft 449 kts 26°
2026-05-06 02:17 21.33574 -98.39528 31027 ft 448 kts 26°
2026-05-06 02:17 21.36339 -98.37997 31265 ft 447 kts 26°
2026-05-06 02:17 21.39095 -98.36470 31502 ft 445 kts 26°
2026-05-06 02:18 21.41805 -98.34968 31725 ft 444 kts 26°
2026-05-06 02:18 21.44544 -98.33450 31969 ft 442 kts 26°
2026-05-06 02:18 21.47272 -98.31937 32198 ft 440 kts 26°
2026-05-06 02:18 21.49984 -98.30432 32430 ft 438 kts 26°
2026-05-06 02:19 21.52684 -98.28933 32671 ft 435 kts 26°
2026-05-06 02:19 21.55367 -98.27443 32904 ft 433 kts 26°
2026-05-06 02:19 21.58030 -98.25963 33137 ft 430 kts 26°
2026-05-06 02:19 21.60677 -98.24492 33369 ft 426 kts 26°
2026-05-06 02:20 21.65898 -98.21588 33812 ft 418 kts 26°
2026-05-06 02:20 21.68436 -98.20175 34018 ft 414 kts 26°
2026-05-06 02:20 21.70977 -98.18760 34231 ft 409 kts 26°
2026-05-06 02:21 21.73486 -98.17362 34429 ft 403 kts 26°
2026-05-06 02:21 21.75127 -98.16448 34564 ft 399 kts 26°
2026-05-06 02:21 21.77590 -98.15075 34618 ft 398 kts 26°
2026-05-06 02:22 21.82537 -98.12319 34446 ft 403 kts 26°
2026-05-06 02:22 21.87522 -98.09538 34497 ft 402 kts 26°
2026-05-06 02:23 21.92472 -98.06773 34549 ft 401 kts 26°
2026-05-06 02:23 21.97439 -98.03997 34457 ft 404 kts 26°
2026-05-06 02:24 22.02420 -98.01210 34488 ft 404 kts 26°
2026-05-06 02:24 22.07310 -97.98472 34541 ft 402 kts 26°
2026-05-06 02:25 22.12292 -97.95681 34509 ft 404 kts 26°
2026-05-06 02:25 22.17235 -97.92908 34555 ft 402 kts 26°
2026-05-06 02:26 22.22205 -97.90119 34537 ft 403 kts 26°
2026-05-06 02:26 22.27228 -97.87299 34409 ft 412 kts 26°
2026-05-06 02:27 22.32184 -97.84201 34490 ft 410 kts 31°
2026-05-06 02:27 22.36979 -97.80909 34622 ft 407 kts 31°
2026-05-06 02:28 22.41493 -97.77810 34694 ft 405 kts 31°
2026-05-06 02:28 22.46263 -97.74551 34642 ft 407 kts 31°
2026-05-06 02:29 22.51064 -97.71277 34609 ft 413 kts 31°
2026-05-06 02:29 22.55996 -97.67911 34667 ft 427 kts 31°
2026-05-06 02:30 22.61079 -97.64437 34789 ft 438 kts 31°
2026-05-06 02:30 22.66302 -97.60865 34804 ft 450 kts 31°
2026-05-06 02:31 22.71665 -97.57193 34797 ft 463 kts 31°
2026-05-06 02:31 22.77191 -97.53403 34806 ft 476 kts 31°
2026-05-06 02:32 22.82867 -97.49506 34811 ft 489 kts 31°
2026-05-06 02:32 22.88674 -97.45514 34798 ft 497 kts 31°
2026-05-06 02:33 22.94580 -97.41449 34812 ft 508 kts 31°
2026-05-06 02:33 22.96565 -97.40082 34810 ft 512 kts 31°
2026-05-06 02:34 23.06715 -97.33085 34804 ft 527 kts 31°
2026-05-06 02:34 23.12934 -97.28791 34800 ft 531 kts 31°
2026-05-06 02:35 23.19174 -97.24476 34797 ft 532 kts 31°
2026-05-06 02:35 23.25410 -97.20149 34799 ft 531 kts 31°
2026-05-06 02:36 23.31641 -97.15825 34793 ft 531 kts 31°
2026-05-06 02:36 23.37870 -97.11509 34801 ft 530 kts 31°
2026-05-06 02:37 23.44093 -97.07194 34804 ft 530 kts 31°
2026-05-06 02:37 23.50311 -97.02875 34806 ft 529 kts 31°
2026-05-06 02:38 23.56417 -96.98628 34806 ft 529 kts 31°
2026-05-06 02:38 23.62628 -96.94302 34811 ft 529 kts 31°
2026-05-06 02:39 23.68789 -96.90007 34807 ft 530 kts 31°
2026-05-06 02:39 23.74998 -96.85674 34809 ft 530 kts 31°
2026-05-06 02:40 23.81206 -96.81332 34811 ft 530 kts 31°
2026-05-06 02:40 23.87412 -96.76986 34812 ft 530 kts 31°
2026-05-06 02:41 23.93620 -96.72634 34818 ft 530 kts 31°
2026-05-06 02:41 23.99831 -96.68274 34817 ft 531 kts 31°
2026-05-06 02:42 24.06035 -96.63916 34816 ft 531 kts 31°
2026-05-06 02:42 24.12256 -96.59540 34813 ft 531 kts 31°
2026-05-06 02:43 24.18474 -96.55160 34811 ft 531 kts 31°
2026-05-06 02:43 24.24683 -96.50781 34820 ft 531 kts 31°
2026-05-06 02:44 24.30904 -96.46387 34815 ft 532 kts 31°
2026-05-06 02:44 24.37124 -96.41989 34819 ft 532 kts 31°
2026-05-06 02:45 24.43302 -96.37616 34827 ft 532 kts 31°
2026-05-06 02:45 24.49518 -96.33210 34823 ft 532 kts 31°
2026-05-06 02:46 24.55739 -96.28796 34823 ft 532 kts 31°
2026-05-06 02:46 24.61948 -96.24384 34826 ft 531 kts 31°
2026-05-06 02:47 24.68162 -96.19965 34829 ft 531 kts 31°
2026-05-06 02:47 24.74371 -96.15552 34827 ft 531 kts 31°
2026-05-06 02:48 24.80582 -96.11131 34825 ft 531 kts 31°
2026-05-06 02:48 24.86787 -96.06709 34831 ft 531 kts 31°
2026-05-06 02:49 24.92985 -96.02284 34836 ft 531 kts 31°
2026-05-06 02:49 24.99087 -95.97925 34831 ft 531 kts 31°
2026-05-06 02:50 25.05267 -95.93504 34841 ft 531 kts 31°
2026-05-06 02:50 25.11459 -95.89067 34836 ft 531 kts 31°
2026-05-06 02:51 25.17660 -95.84618 34837 ft 531 kts 31°
2026-05-06 02:51 25.23852 -95.80171 34849 ft 531 kts 31°
2026-05-06 02:52 25.30047 -95.75715 34848 ft 532 kts 31°
2026-05-06 02:52 25.36211 -95.71277 34841 ft 532 kts 31°
2026-05-06 02:53 25.42411 -95.66806 34849 ft 532 kts 31°
2026-05-06 02:53 25.48608 -95.62332 34852 ft 532 kts 31°
2026-05-06 02:54 25.54796 -95.57858 34864 ft 531 kts 31°
2026-05-06 02:54 25.60980 -95.53367 34843 ft 532 kts 32°
2026-05-06 02:55 25.66717 -95.48149 34859 ft 536 kts 43°
2026-05-06 02:55 25.71974 -95.42286 34862 ft 536 kts 44°
2026-05-06 02:56 25.77220 -95.36379 34844 ft 537 kts 43°
2026-05-06 02:56 25.82492 -95.30507 34863 ft 537 kts 43°
2026-05-06 02:57 25.87784 -95.24650 34863 ft 537 kts 43°
2026-05-06 02:57 25.93076 -95.18791 34864 ft 537 kts 43°
2026-05-06 02:58 25.98368 -95.12920 34869 ft 537 kts 43°
2026-05-06 02:58 26.03641 -95.07057 34866 ft 538 kts 43°
2026-05-06 02:59 26.08931 -95.01168 34882 ft 538 kts 43°
2026-05-06 02:59 26.14126 -94.95377 34866 ft 538 kts 43°
2026-05-06 03:00 26.19407 -94.89481 34875 ft 538 kts 43°
2026-05-06 03:00 26.24687 -94.83579 34878 ft 538 kts 43°
2026-05-06 03:01 26.29971 -94.77666 34878 ft 538 kts 43°
2026-05-06 03:01 26.35246 -94.71753 34883 ft 538 kts 43°
2026-05-06 03:02 26.40492 -94.65865 34880 ft 538 kts 43°
2026-05-06 03:02 26.45769 -94.59935 34880 ft 538 kts 43°
2026-05-06 03:03 26.51039 -94.54002 34894 ft 538 kts 43°
2026-05-06 03:03 26.56312 -94.48060 34884 ft 539 kts 43°
2026-05-06 03:04 26.61590 -94.42104 34890 ft 539 kts 43°
2026-05-06 03:04 26.66868 -94.36139 34894 ft 539 kts 43°
2026-05-06 03:05 26.72136 -94.30176 34892 ft 539 kts 43°
2026-05-06 03:05 26.77405 -94.24205 34893 ft 539 kts 43°
2026-05-06 03:06 26.82639 -94.18264 34904 ft 540 kts 42°
2026-05-06 03:06 26.87911 -94.12272 34900 ft 540 kts 42°
2026-05-06 03:07 26.93186 -94.06269 34903 ft 540 kts 43°
2026-05-06 03:07 26.98458 -94.00260 34903 ft 540 kts 43°
2026-05-06 03:08 27.03628 -93.94357 34902 ft 541 kts 43°
2026-05-06 03:08 27.08900 -93.88331 34903 ft 541 kts 43°
2026-05-06 03:09 27.13279 -93.83325 34915 ft 541 kts 42°
2026-05-06 03:09 27.18550 -93.77292 34914 ft 541 kts 42°
2026-05-06 03:10 27.24672 -93.70271 34911 ft 541 kts 42°
2026-05-06 03:10 27.29089 -93.65198 34910 ft 541 kts 42°
2026-05-06 03:11 27.34354 -93.59143 34914 ft 541 kts 42°
2026-05-06 03:11 27.39617 -93.53081 34915 ft 541 kts 42°
2026-05-06 03:12 27.44839 -93.47058 34921 ft 542 kts 42°
2026-05-06 03:12 27.50107 -93.40973 34917 ft 542 kts 42°
2026-05-06 03:13 27.55371 -93.34883 34925 ft 543 kts 42°
2026-05-06 03:13 27.60647 -93.28769 34920 ft 544 kts 42°
2026-05-06 03:14 27.65920 -93.22652 34919 ft 544 kts 42°
2026-05-06 03:14 27.71200 -93.16518 34926 ft 544 kts 42°
2026-05-06 03:15 27.76477 -93.10382 34922 ft 545 kts 42°
2026-05-06 03:15 27.81720 -93.04276 34928 ft 544 kts 42°
2026-05-06 03:16 27.86887 -92.98248 34932 ft 544 kts 42°
2026-05-06 03:16 27.92150 -92.92099 34930 ft 543 kts 42°
2026-05-06 03:17 27.97398 -92.85957 34933 ft 543 kts 42°
2026-05-06 03:17 28.02633 -92.79822 34934 ft 542 kts 42°
2026-05-06 03:18 28.07875 -92.73669 34942 ft 543 kts 42°
2026-05-06 03:18 28.13118 -92.67508 34930 ft 543 kts 42°
2026-05-06 03:19 28.18359 -92.61336 34932 ft 543 kts 42°
2026-05-06 03:19 28.23600 -92.55156 34926 ft 544 kts 42°
2026-05-06 03:20 28.31457 -92.45873 34938 ft 544 kts 42°
2026-05-06 03:20 28.36696 -92.39668 34949 ft 544 kts 41°
2026-05-06 03:21 28.41933 -92.33456 34935 ft 545 kts 41°
2026-05-06 03:21 28.47171 -92.27233 34939 ft 545 kts 41°
2026-05-06 03:22 28.52407 -92.21001 34937 ft 545 kts 41°
2026-05-06 03:22 28.57642 -92.14763 34936 ft 545 kts 41°
2026-05-06 03:23 28.62836 -92.08563 34938 ft 545 kts 41°
2026-05-06 03:23 28.68060 -92.02318 34941 ft 545 kts 41°
2026-05-06 03:24 28.73198 -91.96167 34944 ft 545 kts 41°
2026-05-06 03:24 28.78428 -91.89896 34947 ft 546 kts 41°
2026-05-06 03:25 28.83659 -91.83613 34942 ft 546 kts 41°
2026-05-06 03:25 28.88885 -91.77327 34945 ft 546 kts 41°
2026-05-06 03:26 28.94109 -91.71034 34946 ft 545 kts 41°
2026-05-06 03:26 28.99329 -91.64736 34951 ft 546 kts 41°
2026-05-06 03:27 29.04542 -91.58436 34948 ft 546 kts 41°
2026-05-06 03:27 29.09763 -91.52116 34955 ft 547 kts 41°
2026-05-06 03:28 29.14942 -91.45836 34951 ft 546 kts 41°
2026-05-06 03:28 29.20159 -91.39501 34949 ft 546 kts 41°
2026-05-06 03:29 29.25363 -91.33172 34962 ft 546 kts 41°
2026-05-06 03:29 29.30564 -91.26838 34949 ft 546 kts 41°
2026-05-06 03:30 29.35759 -91.20499 34961 ft 546 kts 41°
2026-05-06 03:30 29.40953 -91.14151 34958 ft 546 kts 41°
2026-05-06 03:31 29.46144 -91.07796 34957 ft 545 kts 41°
2026-05-06 03:31 29.51329 -91.01440 34960 ft 545 kts 41°
2026-05-06 03:32 29.56385 -90.95229 34966 ft 545 kts 41°
2026-05-06 03:32 29.61564 -90.88862 34964 ft 545 kts 40°
2026-05-06 03:33 29.67363 -90.83507 34971 ft 528 kts 23°
2026-05-06 03:33 29.73953 -90.80105 34960 ft 511 kts
2026-05-06 03:34 29.80778 -90.77843 34961 ft 511 kts
2026-05-06 03:34 29.87627 -90.75592 34978 ft 512 kts
2026-05-06 03:35 29.94475 -90.73273 34968 ft 513 kts
2026-05-06 03:35 30.01305 -90.70920 34969 ft 513 kts
2026-05-06 03:36 30.08144 -90.68554 34971 ft 512 kts
2026-05-06 03:36 30.14968 -90.66193 34976 ft 512 kts
2026-05-06 03:37 30.21793 -90.63834 34968 ft 512 kts
2026-05-06 03:37 30.28576 -90.61485 34955 ft 511 kts
2026-05-06 03:38 30.35388 -90.59123 34967 ft 511 kts
2026-05-06 03:38 30.42210 -90.56753 34992 ft 512 kts
2026-05-06 03:39 30.49035 -90.54380 34985 ft 512 kts
2026-05-06 03:39 30.55859 -90.52002 34979 ft 512 kts
2026-05-06 03:40 30.62683 -90.49621 34976 ft 512 kts
2026-05-06 03:40 30.69506 -90.47237 34975 ft 512 kts
2026-05-06 03:41 30.76333 -90.44848 34967 ft 513 kts
2026-05-06 03:41 30.83168 -90.42453 34959 ft 513 kts
2026-05-06 03:42 30.89997 -90.40056 34955 ft 513 kts
2026-05-06 03:42 30.96830 -90.37654 34980 ft 513 kts
2026-05-06 03:43 31.03600 -90.35270 34960 ft 512 kts
2026-05-06 03:43 31.10453 -90.32854 34946 ft 510 kts
2026-05-06 03:44 31.17196 -90.30473 34951 ft 509 kts
2026-05-06 03:44 31.23975 -90.28076 34954 ft 508 kts
2026-05-06 03:45 31.30768 -90.26205 34954 ft 494 kts 358°
2026-05-06 03:45 31.37516 -90.25748 34952 ft 480 kts 349°
2026-05-06 03:46 31.44192 -90.25880 34948 ft 479 kts 349°
2026-05-06 03:46 31.50872 -90.25994 34940 ft 480 kts 349°
2026-05-06 03:47 31.57558 -90.26063 34943 ft 481 kts 349°
2026-05-06 03:47 31.64251 -90.26124 34937 ft 481 kts 349°
2026-05-06 03:48 31.70936 -90.26187 34936 ft 480 kts 349°
2026-05-06 03:48 31.77580 -90.26248 34927 ft 480 kts 349°
2026-05-06 03:49 31.84265 -90.26303 34936 ft 480 kts 349°
2026-05-06 03:49 31.90946 -90.26358 34928 ft 480 kts 349°
2026-05-06 03:50 31.97617 -90.26414 34926 ft 479 kts 348°
2026-05-06 03:50 32.04276 -90.26471 34914 ft 479 kts 348°
2026-05-06 03:51 32.10942 -90.26528 34923 ft 478 kts 348°
2026-05-06 03:51 32.17602 -90.26585 34922 ft 478 kts 348°
2026-05-06 03:52 32.24264 -90.26642 34924 ft 478 kts 349°
2026-05-06 03:52 32.30918 -90.26699 34927 ft 478 kts 348°
2026-05-06 03:53 32.37567 -90.26756 34934 ft 479 kts 349°
2026-05-06 03:53 32.44240 -90.26816 34922 ft 480 kts 349°
2026-05-06 03:54 32.50897 -90.26873 34921 ft 482 kts 349°
2026-05-06 03:54 32.57611 -90.26931 34914 ft 483 kts 349°
2026-05-06 03:55 32.64339 -90.26988 34920 ft 484 kts 349°
2026-05-06 03:55 32.71079 -90.27047 34906 ft 485 kts 349°
2026-05-06 03:56 32.77838 -90.27104 34887 ft 486 kts 349°
2026-05-06 03:56 32.84609 -90.27162 34879 ft 486 kts 349°
2026-05-06 03:57 32.91377 -90.27221 34917 ft 487 kts 349°
2026-05-06 03:57 32.98174 -90.27281 34886 ft 488 kts 349°
2026-05-06 03:58 33.03820 -90.27329 34880 ft 489 kts 349°
2026-05-06 03:58 33.10622 -90.27388 34873 ft 489 kts 349°
2026-05-06 03:59 33.17426 -90.27446 34897 ft 488 kts 348°
2026-05-06 03:59 33.24222 -90.27505 34877 ft 488 kts 348°
2026-05-06 04:00 33.31003 -90.27564 34873 ft 487 kts 348°
2026-05-06 04:00 33.37770 -90.27624 34877 ft 486 kts 348°
2026-05-06 04:01 33.44485 -90.27676 34898 ft 486 kts 349°
2026-05-06 04:01 33.51319 -90.26929 34901 ft 499 kts 358°
2026-05-06 04:02 33.58183 -90.25593 34885 ft 500 kts 358°
2026-05-06 04:02 33.65054 -90.24245 34882 ft 500 kts 358°
2026-05-06 04:03 33.71924 -90.22943 34893 ft 500 kts 357°
2026-05-06 04:03 33.78798 -90.21661 34867 ft 499 kts 356°
2026-05-06 04:04 33.85661 -90.20381 34856 ft 498 kts 356°
2026-05-06 04:04 33.92507 -90.19098 34851 ft 497 kts 356°
2026-05-06 04:05 33.99341 -90.17815 34860 ft 497 kts 356°
2026-05-06 04:05 34.06149 -90.16535 34850 ft 496 kts 356°
2026-05-06 04:06 34.12958 -90.15252 34846 ft 494 kts 356°
2026-05-06 04:06 34.19753 -90.13970 34850 ft 494 kts 356°
2026-05-06 04:07 34.26487 -90.12698 34851 ft 493 kts 356°
2026-05-06 04:07 34.33261 -90.11416 34845 ft 492 kts 356°
2026-05-06 04:08 34.40014 -90.10132 34840 ft 491 kts 356°
2026-05-06 04:08 34.46761 -90.08841 34836 ft 491 kts 356°
2026-05-06 04:09 34.53509 -90.07550 34842 ft 491 kts 356°
2026-05-06 04:09 34.60251 -90.06257 34839 ft 490 kts 356°
2026-05-06 04:10 34.66989 -90.04962 34837 ft 490 kts 356°
2026-05-06 04:10 34.73715 -90.03668 34850 ft 489 kts 356°
2026-05-06 04:11 34.80409 -90.02381 34839 ft 491 kts 356°
2026-05-06 04:11 34.87177 -90.01075 34825 ft 493 kts 356°
2026-05-06 04:12 34.93830 -89.99787 34849 ft 495 kts 357°
2026-05-06 04:12 35.00622 -89.97944 34855 ft 512 kts
2026-05-06 04:13 35.07238 -89.94336 34838 ft 531 kts 20°
2026-05-06 04:13 35.13593 -89.89657 34839 ft 534 kts 21°
2026-05-06 04:14 35.19914 -89.84880 34821 ft 533 kts 21°
2026-05-06 04:14 35.26256 -89.80162 34856 ft 533 kts 21°
2026-05-06 04:15 35.32594 -89.75502 34832 ft 535 kts 21°
2026-05-06 04:15 35.38987 -89.70802 34827 ft 537 kts 21°
2026-05-06 04:16 35.45406 -89.66067 34825 ft 539 kts 21°
2026-05-06 04:16 35.51833 -89.61312 34834 ft 540 kts 21°
2026-05-06 04:17 35.58289 -89.56527 34825 ft 542 kts 21°
2026-05-06 04:17 35.64752 -89.51726 34822 ft 543 kts 22°
2026-05-06 04:18 35.71224 -89.46910 34821 ft 544 kts 22°
2026-05-06 04:18 35.77701 -89.42080 34849 ft 545 kts 20°
2026-05-06 04:19 35.84207 -89.37222 34828 ft 547 kts 20°
2026-05-06 04:19 35.90724 -89.32346 34830 ft 549 kts 20°
2026-05-06 04:20 35.97258 -89.27445 34830 ft 550 kts 21°
2026-05-06 04:20 36.03797 -89.22531 34822 ft 550 kts 21°
2026-05-06 04:21 36.10324 -89.17615 34830 ft 549 kts 21°
2026-05-06 04:21 36.12484 -89.15987 34826 ft 549 kts 21°
2026-05-06 04:22 36.17908 -89.11893 34828 ft 548 kts 21°
2026-05-06 04:23 36.27652 -89.04523 34887 ft 547 kts 20°
2026-05-06 04:23 36.33979 -88.99731 34872 ft 547 kts 20°
2026-05-06 04:24 36.40472 -88.94806 34873 ft 547 kts 20°
2026-05-06 04:24 36.46969 -88.89868 34868 ft 548 kts 20°
2026-05-06 04:25 36.53472 -88.84912 34879 ft 549 kts 20°
2026-05-06 04:25 36.59970 -88.79948 34829 ft 541 kts 20°
2026-05-06 04:25 36.62663 -88.77872 34819 ft 527 kts 20°
2026-05-06 04:26 36.65731 -88.75501 34819 ft 511 kts 20°
2026-05-06 04:26 36.68663 -88.73238 34818 ft 496 kts 19°
2026-05-06 04:26 36.71595 -88.70978 34817 ft 480 kts 19°
2026-05-06 04:26 36.74352 -88.68856 34865 ft 468 kts 19°
2026-05-06 04:27 36.77141 -88.66733 34866 ft 471 kts 18°
2026-05-06 04:27 36.82734 -88.62478 34843 ft 470 kts 19°
2026-05-06 04:28 36.88301 -88.58203 34865 ft 469 kts 19°
2026-05-06 04:28 36.93874 -88.53900 34864 ft 467 kts 19°
2026-05-06 04:29 36.99392 -88.49633 34898 ft 466 kts 19°
2026-05-06 04:29 37.04874 -88.45391 34870 ft 467 kts 19°
2026-05-06 04:30 37.10449 -88.41066 34857 ft 469 kts 19°
2026-05-06 04:30 37.15972 -88.36775 34857 ft 470 kts 19°
2026-05-06 04:31 37.21543 -88.32437 34850 ft 472 kts 19°
2026-05-06 04:31 37.27136 -88.28076 34853 ft 474 kts 19°
2026-05-06 04:32 37.32738 -88.23697 34865 ft 475 kts 19°
2026-05-06 04:32 37.38360 -88.19294 34857 ft 477 kts 19°
2026-05-06 04:33 37.43990 -88.14873 34858 ft 477 kts 20°
2026-05-06 04:33 37.49627 -88.10437 34902 ft 478 kts 19°
2026-05-06 04:34 37.55267 -88.05992 34901 ft 477 kts 20°
2026-05-06 04:34 37.60890 -88.01549 34893 ft 476 kts 20°
2026-05-06 04:35 37.66420 -87.97174 34760 ft 477 kts 20°
2026-05-06 04:35 37.69246 -87.94943 34290 ft 481 kts 20°
2026-05-06 04:35 37.72079 -87.92700 33889 ft 479 kts 20°
2026-05-06 04:35 37.74898 -87.90459 33374 ft 478 kts 20°
2026-05-06 04:36 37.77701 -87.88228 32866 ft 476 kts 20°
2026-05-06 04:36 37.80497 -87.86003 32354 ft 474 kts 21°
2026-05-06 04:36 37.83288 -87.83782 31877 ft 473 kts 21°
2026-05-06 04:36 37.86032 -87.81597 31399 ft 471 kts 21°
2026-05-06 04:37 37.88803 -87.79390 30925 ft 470 kts 21°
2026-05-06 04:37 37.91561 -87.77190 30460 ft 468 kts 22°
2026-05-06 04:37 37.94311 -87.74994 30023 ft 467 kts 22°
2026-05-06 04:37 37.97051 -87.72804 29491 ft 465 kts 22°
2026-05-06 04:38 37.99783 -87.70616 28957 ft 463 kts 22°
2026-05-06 04:38 38.02489 -87.68447 28427 ft 462 kts 23°
2026-05-06 04:38 38.05200 -87.66271 27925 ft 460 kts 23°
2026-05-06 04:38 38.07902 -87.64100 27420 ft 459 kts 24°
2026-05-06 04:39 38.10592 -87.61936 26922 ft 457 kts 24°
2026-05-06 04:39 38.13278 -87.59774 26432 ft 456 kts 24°
2026-05-06 04:39 38.15951 -87.57621 25943 ft 455 kts 25°
2026-05-06 04:39 38.18620 -87.55469 25505 ft 454 kts 25°
2026-05-06 04:40 38.21283 -87.53322 25024 ft 452 kts 26°
2026-05-06 04:40 38.23934 -87.51184 24565 ft 451 kts 26°
2026-05-06 04:40 38.26586 -87.49045 24096 ft 450 kts 27°
2026-05-06 04:40 38.29226 -87.46915 23670 ft 449 kts 27°
2026-05-06 04:41 38.31864 -87.44785 23183 ft 448 kts 27°
2026-05-06 04:41 38.34494 -87.42661 22659 ft 447 kts 27°
2026-05-06 04:41 38.37110 -87.40546 22152 ft 446 kts 28°
2026-05-06 04:41 38.39732 -87.38425 21638 ft 445 kts 28°
2026-05-06 04:42 38.42338 -87.36315 21148 ft 443 kts 28°
2026-05-06 04:42 38.44936 -87.34211 20660 ft 442 kts 28°
2026-05-06 04:42 38.47531 -87.32107 20179 ft 440 kts 28°
2026-05-06 04:42 38.50107 -87.30016 19713 ft 438 kts 28°
2026-05-06 04:43 38.52676 -87.27930 19238 ft 437 kts 28°
2026-05-06 04:43 38.54372 -87.26553 18924 ft 435 kts 28°
2026-05-06 04:43 38.57746 -87.23811 18316 ft 433 kts 28°
2026-05-06 04:43 38.60280 -87.21751 17818 ft 431 kts 28°
2026-05-06 04:44 38.62800 -87.19699 17343 ft 428 kts 28°
2026-05-06 04:44 38.65307 -87.17654 16835 ft 426 kts 28°
2026-05-06 04:44 38.66990 -87.16281 16490 ft 424 kts 28°
2026-05-06 04:44 38.69442 -87.14277 16020 ft 422 kts 28°
2026-05-06 04:45 38.71910 -87.12258 15528 ft 420 kts 28°
2026-05-06 04:45 38.75191 -87.09570 14886 ft 416 kts 28°
2026-05-06 04:45 38.76798 -87.08251 14580 ft 415 kts 28°
2026-05-06 04:45 38.79229 -87.06255 14098 ft 414 kts 28°
2026-05-06 04:46 38.81651 -87.04266 13651 ft 413 kts 28°
2026-05-06 04:46 38.84068 -87.02279 13114 ft 412 kts 28°
2026-05-06 04:46 38.87163 -86.99732 12499 ft 411 kts 28°
2026-05-06 04:46 38.88756 -86.98421 12169 ft 409 kts 28°
2026-05-06 04:47 38.91147 -86.96452 11671 ft 408 kts 29°
2026-05-06 04:47 38.93529 -86.94488 11171 ft 405 kts 29°
2026-05-06 04:47 38.95886 -86.92542 10672 ft 401 kts 29°
2026-05-06 04:47 38.98223 -86.90610 10196 ft 398 kts 29°
2026-05-06 04:48 39.01247 -86.88106 9892 ft 383 kts 29°
2026-05-06 04:48 39.02743 -86.86862 9861 ft 372 kts 29°
2026-05-06 04:48 39.04867 -86.85081 9847 ft 356 kts 29°
2026-05-06 04:48 39.06882 -86.83373 9843 ft 339 kts 29°
2026-05-06 04:49 39.08778 -86.81753 9861 ft 323 kts 30°
2026-05-06 04:49 39.10630 -86.80160 9848 ft 313 kts 29°
2026-05-06 04:49 39.12414 -86.78620 9855 ft 311 kts 29°
2026-05-06 04:49 39.14209 -86.77069 9855 ft 310 kts 29°
2026-05-06 04:50 39.15998 -86.75522 9852 ft 310 kts 29°
2026-05-06 04:50 39.17789 -86.73975 9857 ft 309 kts 29°
2026-05-06 04:50 39.19574 -86.72432 9865 ft 309 kts 29°
2026-05-06 04:50 39.21364 -86.70886 9860 ft 309 kts 29°
2026-05-06 04:51 39.23148 -86.69344 9870 ft 309 kts 29°
2026-05-06 04:51 39.24934 -86.67799 9862 ft 310 kts 29°
2026-05-06 04:51 39.26728 -86.66247 9872 ft 310 kts 29°
2026-05-06 04:51 39.28524 -86.64695 9868 ft 311 kts 29°
2026-05-06 04:52 39.30330 -86.63134 9873 ft 313 kts 29°
2026-05-06 04:52 39.32117 -86.61592 9878 ft 313 kts 29°
2026-05-06 04:52 39.33928 -86.60029 9880 ft 313 kts 30°
2026-05-06 04:52 39.35743 -86.58464 9882 ft 314 kts 29°
2026-05-06 04:53 39.37561 -86.56889 9885 ft 314 kts 30°
2026-05-06 04:53 39.39376 -86.55316 9876 ft 313 kts 30°
2026-05-06 04:53 39.41189 -86.53749 9874 ft 313 kts 30°
2026-05-06 04:53 39.42993 -86.52188 9880 ft 312 kts 30°
2026-05-06 04:54 39.44797 -86.50624 9888 ft 311 kts 30°
2026-05-06 04:54 39.46602 -86.49066 9874 ft 312 kts 30°
2026-05-06 04:54 39.48404 -86.47505 9872 ft 312 kts 30°
2026-05-06 04:54 39.50209 -86.45944 9870 ft 312 kts 30°
2026-05-06 04:55 39.52014 -86.44382 9874 ft 312 kts 30°
2026-05-06 04:55 39.53906 -86.43043 9605 ft 311 kts 12°
2026-05-06 04:55 39.56030 -86.42707 8978 ft 308 kts 350°
2026-05-06 04:55 39.58158 -86.43102 8357 ft 310 kts 345°
2026-05-06 04:56 39.60311 -86.43265 7694 ft 317 kts
2026-05-06 04:56 39.62407 -86.42307 7068 ft 322 kts 27°
2026-05-06 04:56 39.63745 -86.41238 6653 ft 313 kts 32°
2026-05-06 04:56 39.65422 -86.39608 5827 ft 294 kts 41°
2026-05-06 04:57 39.66793 -86.37766 5258 ft 265 kts 46°
2026-05-06 04:57 39.67927 -86.36023 4321 ft 251 kts 46°
2026-05-06 04:57 39.68977 -86.34305 3100 ft 230 kts 49°
2026-05-06 04:57 39.70127 -86.32683 1339 ft 249 kts 41°
2026-05-06 04:58 39.71309 -86.31228 817 ft 216 kts 43°
2026-05-06 04:58 39.72304 -86.29994 791 ft 167 kts 39°
2026-05-06 04:58 39.72955 -86.29340 793 ft 70 kts 37°
2026-05-06 04:59 39.63205 -86.41692 6818 ft 318 kts 31°
2026-05-06 04:59 39.64579 -86.40466 6474 ft 288 kts 34°
2026-05-06 05:00 39.65899 -86.39074 6125 ft 259 kts 39°
2026-05-06 05:00 39.67033 -86.37261 5018 ft 256 kts 53°
2026-05-06 05:00 39.67973 -86.35372 4021 ft 246 kts 54°
2026-05-06 05:00 39.63260 -86.41647 6797 ft 317 kts 31°
2026-05-06 05:01 39.64100 -86.40858 6719 ft 293 kts 39°
2026-05-06 05:01 39.65453 -86.39083 6567 ft 269 kts 46°
2026-05-06 05:01 39.66665 -86.37220 6051 ft 271 kts 50°
2026-05-06 05:02 39.67819 -86.35302 5035 ft 263 kts 49°
2026-05-06 05:02 39.63406 -86.41526 6779 ft 313 kts 32°
2026-05-06 05:02 39.64092 -86.40920 6678 ft 295 kts 33°
2026-05-06 05:02 39.65563 -86.39204 5990 ft 278 kts 46°
2026-05-06 05:03 39.66764 -86.37323 5105 ft 262 kts 49°
2026-05-06 05:03 39.67879 -86.35542 4090 ft 248 kts 47°
2026-05-06 05:03 39.69325 -86.33216 2154 ft 242 kts 41°
2026-05-06 05:03 39.63951 -86.41036 6714 ft 297 kts 33°
2026-05-06 05:04 39.65530 -86.39544 5866 ft 273 kts 34°
2026-05-06 05:04 39.66807 -86.37778 4819 ft 263 kts 50°
2026-05-06 05:04 39.67239 -86.36983 4503 ft 253 kts 53°
2026-05-06 05:04 39.68005 -86.35450 3116 ft 244 kts 53°
2026-05-06 05:05 39.69165 -86.33779 1457 ft 250 kts 35°
2026-05-06 05:05 39.70379 -86.32377 831 ft 222 kts 42°
2026-05-06 05:05 39.71380 -86.31135 791 ft 165 kts 39°
2026-05-06 05:05 39.71986 -86.30449 787 ft 67 kts 39°